User: anonymous   Login
Location: Unspecified
(0.0000°N, 0.0000°E)
Time: 19:10:25
(UTC+00:00)
Language:

STSS DEMO 1 (USA 208) - Orbit

View from above orbital plane
View from above orbital plane
View from above satellite
View from above satellite

Ground track
Ground track

The orbit data is extracted from the following two-line orbital elements,

1 35937U 09052A   15014.75940238 0.00000040  00000-0  17735-3 0    05
2 35937  57.9917 254.8903 0018464 106.7094 253.2906 12.79146646    01
Epoch (UTC): 14 January 2015 18:13:32
Eccentricity: 0.0018464
inclination: 57.9917°
perigee height: 1330 km
apogee height: 1359 km
right ascension of ascending node: 254.8903°
argument of perigee: 106.7094°
revolutions per day: 12.79146646
mean anomaly at epoch: 253.2906°
orbit number at epoch: 0

The dashed part of the orbit path shows where the satellite is in the earth's shadow,  

DLR